Location: Unspecified
(49.8670°N, 0.0000°E)
Time: 13:42:00
(UTC+00:00)

S-56A Canister/Altair - Pass Details

Date: 18 June 2019
Orbit: 633 x 2499 km, 38.9° (Epoch: 19 August)

Event Time Altitude Azimuth Distance (km) Brightness Sun altitude
Rises 21:56:45 0° 259° (WSW) 3,168 10.9 -11.7°
Reaches altitude 10° 22:01:26 10° 219° (SW) 2,050 9.5 -12.0°
Maximum altitude 22:02:17 10° 208° (SSW) 1,999 9.3 -12.1°
Drops below altitude 10° 22:03:08 10° 197° (SSW) 2,016 9.3 -12.2°
Enters shadow 22:03:21 10° 194° (SSW) 2,032 9.3 -12.2°
Sets 22:07:30 0° 155° (SSE) 2,939 - -12.5°
